NWS Regional Weather Roundup

000
ASUS41 KBGM 201810
RWRBGM

REGIONAL WEATHER ROUNDUP
NATIONAL WEATHER SERVICE BINGHAMTON NY
100 PM EST THU FEB 20 2020

Note: "fair" indicates few or no clouds below 12,000 feet with no
significant weather and/or obstructions to visibility.

* = Station(s) that does not report precipitation, such as rain,
snow, etc, also no thunder or fog.

NYZ009-015>018-022>025-036-037-044>046-055>057-062-201900
...Central New York...

CITY           SKY/WX    TMP DP  RH WIND       PRES   REMARKS
Binghamton     FAIR      23   5  46 NW15G26   30.33F WCI  10
Cortland       LGT SNOW  19  14  79 N5        30.40S WCI  13
Dansville      CLOUDY    27  13  55 NW10      30.45F WCI  17
Elmira         PTSUNNY   26   9  48 NW7       30.42F WCI  18
Endicott       CLOUDY    25   7  46 N8        30.41F WCI  16
Ithaca         LGT SNOW  20  15  81 N13       30.41F WCI   7
Hamilton       CLOUDY    21  10  63 N13G18    30.39S WCI   9
Monticello     PTSUNNY   27   7  42 NW14G21   30.33F WCI  16
Norwich        LGT SNOW  21  12  68 N12G20    30.38F WCI   9
Oneonta        MOSUNNY   21   9  58 W6G17     30.30F WCI  14
Penn Yan       CLOUDY    22  14  71 N6        30.43F WCI  14
Rome           CLOUDY    23   9  55 NW18      30.45F WCI   9
Seneca Falls   CLOUDY    21  10  63 N14       30.48F WCI   8
Sidney         CLOUDY    25  10  54 NW6       30.37F WCI  18
Skaneateles    CLOUDY    21  10  63 VRB6G14   30.43F WCI  14
Syracuse       PTSUNNY   22   7  52 NW14      30.47F WCI   9
$$

PAZ038>040-043-044-047-048-072-201900
...Northeast Pennsylvania...

CITY           SKY/WX    TMP DP  RH WIND       PRES   REMARKS
Hazleton       CLOUDY    27   9  46 W6        30.38F WCI  20
Scranton       CLOUDY    29   9  43 W8        30.39F WCI  21
Towanda        PTCLDY    28  10  47 N5        30.43F WCI  23
$$
&&
KEY
WCI = Wind Chill Index
VSB = Visibility
HX  = Heat Index
$$

NWS BGM Office Regional Weather Roundup